Home   Weather   Wright   Past weeks

Flag for USA Past Weather in Wright, Florida, USA — Yesterday and Last 2 Weeks

Now
74 °F

Partly sunny.


Feels Like: 72 °F
Forecast: 73 / 78 °F
Wind: 14 mph from Southeast

Location: Hurlburt Field

Current Time: Apr 28, 2017 at 7:44:38 am

Latest Report: Apr 28, 2017 at 6:58 am


Visibility: 7 mi

Pressure: 29.94 "Hg

Humidity: 95%

Dew Point: 73 °F

Location of WrightLocation

Past Weather in Wright — Graph

°F

Wright Temperature Yesterday

Maximum temperature yesterday: 81 °F (at 2:58 pm)
Minimum temperature yesterday: 74 °F (at 12:58 am)
Average temperature yesterday: 77 °F

High & Low Weather Summary for the Past Weeks

 TemperatureHumidityPressure
High81 °F (Apr 18, 1:58 pm)100% (Apr 14, 1:58 am)30.25 "Hg (Apr 14, 1:58 am)
Low49 °F (Apr 25, 5:58 am)26% (Apr 21, 12:58 pm)29.73 "Hg (Apr 27, 3:58 am)
Average70 °F70%30.00 "Hg
* Reported Apr 13 5:58 am — Apr 28 5:58 am, Wright, Weather by CustomWeather, © 2017

Note: Actual official high and low records may vary slightly from our data, if they occured in-between our weather recording intervals... More about our weather records

Advertising

Wright Weather History for the Previous 24 Hours

Scroll right to see more
 ConditionsComfort  
Time TempWeatherWind HumidityBarometerVisibility
5:58 am
Fri, Apr 28
74 °FFog.12 mph95%29.91 "Hg9 mi
4:58 am74 °FLow clouds.14 mph97%29.89 "Hg9 mi
3:58 am74 °FFog.10 mph97%29.87 "Hg8 mi
2:58 am74 °FFog.10 mph96%29.87 "Hg9 mi
1:58 am74 °FPassing clouds.13 mph96%29.87 "Hg10 mi
12:58 am74 °FPassing clouds.10 mph96%29.89 "Hg10 mi
11:58 pm
Thu, Apr 27
74 °FPassing clouds.9 mph96%29.87 "Hg9 mi
10:58 pm75 °FLow clouds.8 mph94%29.87 "Hg9 mi
9:58 pm75 °FLow clouds.12 mph93%29.87 "Hg9 mi
8:58 pm75 °FLow clouds.12 mph94%29.85 "Hg9 mi
7:58 pm76 °FLow clouds.13 mph90%29.83 "Hg9 mi
6:58 pm76 °FLow clouds.13 mph87%29.83 "Hg9 mi
5:58 pm77 °FLow clouds.12 mph82%29.83 "Hg10 mi
4:58 pm78 °FLow clouds.12 mph79%29.83 "Hg10 mi
3:58 pm80 °FPartly sunny.15 mph72%29.81 "Hg10 mi
2:58 pm81 °FDrizzle. Partly sunny.16 mph71%29.84 "Hg10 mi
1:58 pm80 °FLow clouds.16 mph70%29.83 "Hg10 mi
12:58 pm80 °FMostly cloudy.14 mph73%29.84 "Hg10 mi
12:01 pm77 °FMostly cloudy.15 mph79%29.84 "Hg10 mi
11:58 am78 °FBroken clouds.12 mph79%29.84 "Hg10 mi
10:58 am78 °FCloudy.16 mph75%29.83 "Hg10 mi
10:30 am79 °FDrizzle. Low clouds.17 mph74%29.83 "Hg10 mi
9:58 am79 °FMore clouds than sun.16 mph75%29.81 "Hg10 mi
8:58 am76 °FLow clouds.17 mph84%29.80 "Hg8 mi
7:58 am75 °FMore clouds than sun.15 mph89%29.79 "Hg10 mi
Weather by CustomWeather, © 2017

See weather overviewHow to use our weather pages